Regional Weather Roundup
Issued by NWS Albany, NY

Home | Current Version | Previous Version | Text Only | Print | Product List | Glossary On
Versions: 1 2 3 4 5 6 7 8 9 10 11 12 13 14 15 16 17 18 19 20 21 22 23 24 25 26 27 28 29 30 31 32 33 34 35 36 37 38 39 40 41 42 43 44 45 46 47 48 49 50
594
ASUS41 KALY 210310
RWRALY

NEW YORK STATE HOURLY WEATHER ROUNDUP
NATIONAL WEATHER SERVICE ALBANY NY
1000 PM EST SAT JAN 20 2018

NOTE: "FAIR" INDICATES FEW OR NO CLOUDS BELOW 12,000 FEET WITH NO
SIGNIFICANT WEATHER AND/OR NO OBSTRUCTIONS TO VISIBILITY.

NYZ032-033-038>043-046>054-057>066-NYZ062>081-082-084-210400-
EAST


CITY           SKY/WX    TMP DP  RH WIND       PRES   REMARKS
ALBANY         FAIR      37  25  61 SW5       30.00R WCI  33
GLENS FALLS    FAIR      28  25  88 CALM      29.97R
POUGHKEEPSIE   FAIR      30  24  78 CALM      30.00R
NEWBURGH       CLEAR     37  28  70 W6        30.01R WCI  33
MONTGOMERY     FAIR      30  25  81 SW6       30.00R WCI  24
WHITE PLAINS   FAIR      35  25  66 CALM      29.99R
ISLIP          FAIR      40  27  59 W6        30.01R
NEW YORK CITY  FAIR      47  27  45 W8        30.01R
CENTRAL PARK   FAIR      45  27  49 CALM      30.04R
$$

NYZ005>009-017-018-044>046-055-056-210400-
CENTRAL


CITY           SKY/WX    TMP DP  RH WIND       PRES   REMARKS
FULTON         FAIR      36  27  69 W10       30.01S WCI  28
SYRACUSE       MOCLDY    30  27  88 SW6       30.02R WCI  24
ROME           FAIR      30  25  81 NW3       30.03R
ELMIRA         FAIR      26  25  96 CALM      30.02R
BINGHAMTON     FAIR      34  25  69 W7        29.98R WCI  28
MONTICELLO     FAIR      31  25  78 SW5       30.00R WCI  26
$$

NYZ026>034-041>043-087-210400-
NORTH


CITY           SKY/WX    TMP DP  RH WIND       PRES   REMARKS
WATERTOWN      FAIR      36  32  85 SW10G18   29.98S WCI  28
FORT DRUM      NOT AVBL
OGDENSBURG     CLOUDY    38  32  80 SW7       29.94S WCI  32
MASSENA        CLOUDY    38  32  79 SW12      29.94R WCI  30
SARANAC LAKE   CLOUDY    33  29  85 SW13      29.88R WCI  24
PLATTSBURGH    CLOUDY    38  29  70 S6        29.91R WCI  33
$$

NYZ001>004-010>016-019>021-085-210400-
WEST


CITY           SKY/WX    TMP DP  RH WIND       PRES   REMARKS
NIAGARA FALLS  FAIR      31  24  75 S8        30.03R WCI  23
BUFFALO        FAIR      33  28  81 SW10      30.04R WCI  25
DUNKIRK        FAIR      45  26  47 SW5       30.07R
JAMESTOWN      FAIR      33  25  72 SW7       30.03R WCI  27
WELLSVILLE     FAIR      37  26  64 W13       30.01R WCI  29
ROCHESTER      FAIR      36  29  75 W10       30.02S WCI  28
PENN YAN       FAIR      34  23  64 CALM      30.01R
$$

             KEY
       WCI = WIND CHILL INDEX
       VSB = VISIBILITY
       HX  = HEAT INDEX
$$




USA.gov is the U.S. government's official web portal to all federal, state and local government web resources and services.